User: anonymous   Login
Location: Elstree
(51.6403°N, 0.2969°W)
Time: 14:20:10
(UTC+00:00)
Language:

Cosmos 2369 Rocket - Orbit

View from above orbital plane
View from above orbital plane
View from above satellite
View from above satellite

Ground track
Ground track

The orbit data is extracted from the following two-line orbital elements,

1 26070U 00006B   21136.58352093 -.00000311  00000-0 -13461-3 0  9994
2 26070  71.0023 193.2166 0017689 330.1384  29.8728 14.15474841 99778
Epoch (UTC): 16 May 2021 14:00:16
Eccentricity: 0.0017689
inclination: 71.0023°
perigee height: 828 km
apogee height: 853 km
right ascension of ascending node: 193.2166°
argument of perigee: 330.1384°
revolutions per day: 14.15474841
mean anomaly at epoch: 29.8728°
orbit number at epoch: 9977

The dashed part of the orbit path shows where the satellite is in the earth's shadow,  

DLR